Regional Weather Roundup
Issued by NWS Cleveland, OH

Home | Current Version | Previous Version | Graphics & Text | Print | Product List | Glossary On
Versions: 1 2 3 4 5 6 7 8 9 10 11 12 13 14 15 16 17 18 19 20 21 22 23 24 25 26 27 28 29 30 31 32 33 34 35 36 37 38 39 40 41 42 43 44 45 46 47 48 49 50
574
ASUS41 KCLE 271402
RWRCLE
OHIO REGIONAL WEATHER ROUNDUP
NATIONAL WEATHER SERVICE CLEVELAND, OH
1000 AM EDT THU JUL 27 2017

NOTE: "FAIR" INDICATES FEW OR NO CLOUDS BELOW 12,000 FEET WITH NO
SIGNIFICANT WEATHER AND/OR OBSTRUCTIONS TO VISIBILITY.

OHZ001>008-015>018-024>027-034-035-043-044-271500-
   NORTHWEST OHIO

CITY           SKY/WX    TMP DP  RH WIND       PRES   REMARKS
DEFIANCE       PTSUNNY   73  66  78 SE3       29.93S
FINDLAY        CLOUDY    76  67  73 SE8       29.93S
TOLEDO EXPRESS CLOUDY    73  67  81 CALM      29.93F
TOLEDO EXEC    CLOUDY    76  68  76 CALM      29.94F
LIMA           LGT RAIN  73  69  87 S5        29.94F
$$

OHZ009>014-019>023-028>033-038-089-271500-
   NORTHEAST OHIO

CITY           SKY/WX    TMP DP  RH WIND       PRES   REMARKS
CLE-HOPKINS    CLOUDY    76  65  68 S6        29.98F
CLE-LAKEFRONT  CLOUDY    77  63  61 S6        29.95F
CUY CO. ARPT   NOT AVBL
LORAIN-ELYRIA  CLOUDY    73  61  65 S6        29.97F
ASHTABULA      CLOUDY    71  66  84 S6        29.99F
AKRON-CANTON   CLOUDY    75  63  66 SW7       29.99F
WOOSTER        CLOUDY    72  65  78 S6        29.99F
MANSFIELD      CLOUDY    76  65  68 S6        29.98F
YOUNGSTOWN     CLOUDY    72  63  73 VRB5      30.00S
$$

OHZ042-051>053-060>062-070>072-077>081-271500-
  SOUTHWEST OHIO

CITY           SKY/WX    TMP DP  RH WIND       PRES   REMARKS
CINC-COVINGTON CLOUDY    77  76  96 S3        29.97F
CINC-LUNKEN    CLOUDY    75  73  93 SW5       29.96F
HAMILTON       CLOUDY    78  74  87 VRB3      29.97F
DAYTON         CLOUDY    74  68  81 SW5       29.97F
WRIGHT-PAT AFB PTSUNNY   73  71  93 S3        29.96F
DAYTON GENERAL CLOUDY    75  70  84 SW5       29.96F
WILMINGTON     CLOUDY    73  71  93 SW8       29.97F
$$

OHZ036-037-039>041-045>050-054>059-063>069-073>076-082>088-271500-
  CENTRAL AND SOUTHEAST OHIO

CITY           SKY/WX    TMP DP  RH WIND       PRES   REMARKS
COLUMBUS       CLOUDY    79  67  66 SE7       29.96F
OSU AIRPORT    PTSUNNY   78  67  68 S7        29.96F
BOLTON FIELD   MOSUNNY   73  66  78 S6        29.97F
RICKENBACK AFB PTSUNNY   73  68  82 CALM      29.96F
NEWARK         CLOUDY    75  66  73 CALM      29.97F
MARION         CLOUDY    74  65  73 S9        29.97F
LANCASTER      MOSUNNY   74  67  78 S5        29.97F
ZANESVILLE     CLOUDY    72  66  81 S5        29.98F
NEW PHILLY     NOT AVBL
$$




USA.gov is the U.S. government's official web portal to all federal, state and local government web resources and services.